Lander, WY

5:37 PM MST on February 26, 2017 (GMT -0700)
Hunt

Weather History for KLND - October, 2011

Change the Weather History Date:

Wednesday, October 26, 2011

  Actual Average Record
Temperature  
Mean Temperature 31 °F 42 °F  
Max Temperature 38 °F 54 °F 75 °F (1977)
Min Temperature 24 °F 29 °F 2 °F (1913)
Degree Days  
Heating Degree Days 34 23  
Month to date heating degree days 385 479  
Since 1 July heating degree days 492 738  
Cooling Degree Days 0 0  
Month to date cooling degree days 10 0  
Year to date cooling degree days 576 472  
Moisture  
Dew Point 25 °F    
Average Humidity 76    
Maximum Humidity 100    
Minimum Humidity 52    
Precipitation  
Precipitation 0.04 in 0.04 in 0.55 in (1976)
Month to date precipitation 1.88 1.11  
Year to date precipitation 13.44 11.04  
Snow  
Snow 0.70 in 0.30 in - ()
Month to date snowfall 4.0 7.9  
Since 1 July snowfall 4.0 10.6  
Since 1 September snowfall 4.0 10.6  
Snow Depth 1.00 in    
Sea Level Pressure  
Sea Level Pressure 30.25 in    
Wind  
Wind Speed 5 mph (WNW)    
Max Wind Speed 9 mph    
Max Gust Speed -    
Visibility 5 miles    
Events Snow    
T = Trace of Precipitation, MM = Missing Value Source: NWS Daily Summary

Daily Weather History Graph

Daily Weather History Graph

Search for Another Location

Airport or City:

Trip Planner

Search our weather history database for the weather conditions in past years. The results will help you decide how hot, cold, wet, or windy it might be!

Date:

Astronomy

Oct. 26, 2011 Rise Set
Actual Time 7:41 AM MDT 6:15 PM MDT
Civil Twilight 7:12 AM MDT 6:44 PM MDT
Nautical Twilight 6:39 AM MDT 7:17 PM MDT
Astronomical Twilight 6:06 AM MDT 7:50 PM MDT
Moon 7:34 AM MDT (10/26) 5:58 PM MDT (10/26)
Length of Visible Light 11h 32m
Length of Day
10h 34m
Waning Crescent, 0% of the Moon is Illuminated
Oct 26
Waning Crescent
Oct 26
New
Nov 2
First Quarter
Nov 10
Full
Nov 18
Last Quarter

Hourly Weather History & Observations

Time (MDT) Temp. Windchill Dew Point Humidity Pressure Visibility Wind Dir Wind Speed Gust Speed Precip Events Conditions
12:40 AM 30.2 °F - 28.4 °F 93% 30.24 in 1.8 mi Calm Calm - 0.01 in Snow Light Snow
12:53 AM 30.0 °F - 28.0 °F 92% 30.30 in 2.5 mi Calm Calm - 0.01 in Snow Light Snow
1:38 AM 30.2 °F - 28.4 °F 93% 30.24 in 1.8 mi Calm Calm - 0.01 in Snow Light Snow
1:53 AM 30.0 °F - 28.0 °F 92% 30.30 in 1.2 mi Calm Calm - 0.01 in Snow Light Snow
2:22 AM 30.2 °F - 26.6 °F 86% 30.24 in 2.0 mi Calm Calm - 0.01 in Snow Light Snow
2:30 AM 30.2 °F - 28.4 °F 93% 30.23 in 2.0 mi Calm Calm - 0.01 in Snow Light Snow
2:53 AM 28.9 °F - 28.0 °F 96% 30.29 in 3.0 mi Calm Calm - 0.01 in Snow Light Snow
2:55 AM 28.4 °F - 28.4 °F 100% 30.22 in 2.5 mi Calm Calm - 0.00 in Snow Light Snow
3:18 AM 30.2 °F - 28.4 °F 93% 30.23 in 3.0 mi Calm Calm - 0.00 in Snow Light Snow
3:53 AM 30.0 °F 25.2 °F 28.0 °F 92% 30.28 in 8.0 mi East 4.6 mph - 0.00 in   Overcast
4:36 AM 28.4 °F - 28.4 °F 100% 30.22 in 4.0 mi Calm Calm - 0.00 in Snow Light Snow
4:53 AM 30.0 °F - 28.0 °F 92% 30.28 in 5.0 mi Calm Calm - 0.00 in Snow Light Snow
5:53 AM 28.9 °F 23.9 °F 27.0 °F 92% 30.30 in 5.0 mi West 4.6 mph - 0.00 in Snow Light Snow
6:53 AM 28.9 °F 23.9 °F 25.0 °F 85% 30.31 in 3.0 mi West 4.6 mph - 0.00 in Snow Light Snow
7:03 AM 28.4 °F 23.3 °F 26.6 °F 93% 30.24 in 2.5 mi NW 4.6 mph - 0.00 in Snow Light Snow
7:06 AM 28.4 °F 24.6 °F 24.8 °F 86% 30.24 in 3.0 mi North 3.5 mph - 0.00 in Snow Light Snow
7:36 AM 28.4 °F 21.2 °F 26.6 °F 93% 30.25 in 5.0 mi NNW 6.9 mph - 0.01 in Snow Light Snow
7:53 AM 28.0 °F 20.8 °F 25.0 °F 88% 30.32 in 4.0 mi NNW 6.9 mph - 0.01 in Snow Light Snow
8:10 AM 26.6 °F 20.0 °F 24.8 °F 93% 30.25 in 2.0 mi WNW 5.8 mph - 0.00 in Snow Light Snow
8:18 AM 26.6 °F 19.1 °F 24.8 °F 93% 30.25 in 2.0 mi WNW 6.9 mph - 0.00 in Snow Light Snow
8:31 AM 26.6 °F 20.0 °F 24.8 °F 93% 30.26 in 3.0 mi WNW 5.8 mph - 0.01 in Snow Light Snow
8:50 AM 28.4 °F 22.2 °F 26.6 °F 93% 30.26 in 2.0 mi West 5.8 mph - 0.01 in Snow Light Snow
8:53 AM 28.0 °F 21.7 °F 26.1 °F 92% 30.34 in 2.0 mi West 5.8 mph - 0.01 in Snow Light Snow
9:05 AM 28.4 °F 22.2 °F 24.8 °F 86% 30.27 in 2.5 mi West 5.8 mph - 0.00 in Snow Light Snow
9:19 AM 28.4 °F 21.2 °F 26.6 °F 93% 30.27 in 1.5 mi West 6.9 mph - 0.00 in Snow Light Snow
9:30 AM - - - N/A% 30.28 in - North - - 0.00 in   Unknown
9:53 AM - - - N/A% 30.27 in - North - - 0.00 in   Unknown
10:26 AM 28.4 °F 23.3 °F 24.8 °F 86% 30.27 in 2.5 mi WNW 4.6 mph - N/A   Overcast
10:33 AM 28.4 °F 22.2 °F 24.8 °F 86% 30.27 in 3.0 mi WNW 5.8 mph - N/A   Overcast
10:44 AM 28.4 °F 22.2 °F 24.8 °F 86% 30.26 in 2.5 mi West 5.8 mph - N/A   Overcast
10:53 AM 30.0 °F 24.1 °F 25.0 °F 82% 30.35 in 3.0 mi WNW 5.8 mph - N/A   Haze
11:53 AM 32.0 °F 27.5 °F 25.0 °F 75% 30.33 in 10.0 mi NW 4.6 mph - N/A   Overcast
12:35 PM 33.8 °F 29.6 °F 24.8 °F 70% 30.24 in 10.0 mi WNW 4.6 mph - N/A   Mostly Cloudy
12:53 PM 32.0 °F 27.5 °F 23.0 °F 69% 30.31 in 10.0 mi NNE 4.6 mph - N/A   Mostly Cloudy
1:53 PM 36.0 °F 33.3 °F 21.9 °F 57% 30.27 in 10.0 mi NNW 3.5 mph - N/A   Partly Cloudy
2:53 PM 35.1 °F 30.1 °F 21.9 °F 59% 30.25 in 10.0 mi NNW 5.8 mph - N/A   Partly Cloudy
3:53 PM 37.0 °F - 21.0 °F 52% 30.22 in 10.0 mi Calm Calm - N/A   Clear
4:53 PM 36.0 °F 29.0 °F 21.9 °F 57% 30.21 in 10.0 mi SSE 9.2 mph - N/A   Clear
5:53 PM 33.1 °F 26.1 °F 23.0 °F 66% 30.20 in 10.0 mi SSE 8.1 mph - N/A   Clear
6:53 PM 30.9 °F 22.8 °F 21.0 °F 67% 30.20 in 10.0 mi ESE 9.2 mph - N/A   Clear
7:53 PM 30.9 °F 22.8 °F 21.0 °F 67% 30.19 in 10.0 mi SW 9.2 mph - N/A   Clear
8:53 PM 27.0 °F 21.6 °F 19.9 °F 75% 30.19 in 10.0 mi NNE 4.6 mph - N/A   Clear
9:53 PM 28.0 °F 24.2 °F 21.0 °F 75% 30.09 in 10.0 mi North 3.5 mph - N/A   Clear
10:53 PM 28.0 °F 21.7 °F 19.9 °F 72% 30.19 in 10.0 mi WNW 5.8 mph - N/A   Clear
11:53 PM 25.0 °F - 19.0 °F 78% 30.19 in 10.0 mi Calm Calm - N/A   Clear